Helicity
119 109 99 120 136 152 158 174 152 145 160 154 150 158 172 168 167 98 150 163 213 230 225 206 238 345 363 291 273 235 218 264 299 251 250 191 242 272 361 338 292 369 339 367 311 405 191 181 203 142 102 131 154 120
123 137 130 106 130 139 140 138 156 162 144 159 148 151 150 169 190 123 127 165 213 272 294 273 260 271 250 228 258 278 330 259 234 309 298 248 307 369 297 354 443 464 344 306 396 327 272 168 167 115 88 143 125 99
136 152 119 112 111 102 95 100 105 114 131 149 147 139 144 143 163 153 139 145 169 175 156 225 171 143 187 220 250 323 317 286 340 295 267 307 351 313 335 320 372 322 295 377 303 272 197 178 148 224 160 108 104 125
96 95 97 102 103 103 99 88 90 92 96 106 110 120 126 135 119 106 124 122 157 169 180 168 160 143 121 127 163 275 347 375 342 301 265 305 380 263 356 355 348 384 344 268 208 170 140 116 209 123 69 137 165 182
127 112 113 116 104 94 80 76 78 90 99 116 117 104 126 146 111 92 104 116 131 195 242 236 189 164 197 216 217 252 297 319 324 304 351 363 356 336 309 308 326 369 234 222 260 137 167 146 115 125 214 208 210 205
81 87 101 100 100 105 96 90 76 68 75 74 79 86 103 134 112 91 118 144 158 186 232 200 194 229 237 265 219 186 203 238 264 280 306 322 373 310 295 310 269 294 230 139 213 222 159 126 210 249 218 225 194 155
86 81 76 74 81 84 84 80 80 69 54 55 63 77 84 95 103 131 162 134 101 93 168 175 103 116 68 103 148 174 197 222 235 252 306 326 331 338 412 374 290 182 171 224 207 207 227 196 147 259 298 253 160 150
54 53 62 75 69 68 67 76 72 67 68 48 49 62 69 66 79 99 133 157 153 180 199 265 285 207 188 189 184 155 174 196 218 286 326 311 304 361 367 294 192 165 215 236 191 179 158 192 220 225 217 205 153 138
38 40 41 48 52 50 41 46 55 57 55 54 63 66 75 121 117 93 88 113 160 253 301 329 297 134 155 169 198 194 194 222 211 294 334 270 311 382 213 194 210 175 176 131 146 181 194 181 156 124 83 81 97 97
28 26 20 22 32 32 30 32 30 43 60 61 75 72 58 49 52 65 114 143 201 280 403 356 409 353 264 214 176 163 144 170 194 197 230 241 309 151 99 167 160 133 -0 94 123 151 86 77 46 44 10 8 36 75
24 19 19 15 14 17 14 15 19 52 52 71 62 59 72 60 73 83 117 148 136 159 166 169 135 157 193 209 177 151 220 203 250 194 210 220 183 58 72 108 78 16 40 73 116 69 26 -4 10 17 37 65 105 124
20 17 12 15 14 10 10 3 -2 59 71 55 55 67 64 70 77 121 181 185 180 139 176 126 126 134 143 160 173 177 217 248 223 243 265 266 135 84 100 78 -1 29 94 42 36 37 64 87 107 124 137 147 145 148
25 29 37 33 29 25 35 44 40 74 141 115 84 40 49 80 144 119 148 208 170 130 107 101 103 116 137 146 174 198 242 234 286 286 305 221 139 143 49 22 -24 109 121 117 71 82 60 66 83 106 135 158 167 173
35 32 33 44 49 55 57 48 57 107 144 117 122 116 94 141 157 177 191 180 150 163 128 91 139 136 144 134 170 208 228 246 289 330 242 154 96 72 -11 -60 61 73 138 99 72 64 86 90 125 131 146 163 175 195
41 39 38 40 39 34 32 31 74 162 139 178 198 207 187 197 249 235 202 181 120 116 115 115 120 101 105 140 167 213 283 282 281 270 253 145 46 29 36 76 90 110 89 92 123 156 144 148 142 144 161 165 166 155
20 32 49 20 11 11 9 45 152 174 130 190 287 378 351 277 231 217 202 196 133 126 146 134 90 76 79 207 247 230 332 382 330 220 148 131 107 102 94 105 134 156 130 148 165 152 143 126 129 134 145 129 120 137
20 74 45 20 12 22 26 154 187 195 230 309 313 311 320 216 192 219 238 242 235 257 231 170 179 139 176 211 344 343 374 266 207 224 184 170 190 136 133 154 162 157 155 151 132 109 114 123 122 122 135 119 138 150
52 52 25 23 34 76 110 132 212 239 271 305 292 269 336 291 224 204 277 370 336 280 244 219 164 177 219 288 271 270 275 248 201 204 214 185 165 145 207 204 185 172 144 110 120 115 111 101 92 124 123 101 108 125
43 58 43 40 66 112 121 159 245 271 302 359 323 310 377 343 311 271 244 269 322 334 312 295 201 233 279 310 293 278 207 194 183 161 185 189 180 206 192 167 138 99 94 109 96 101 103 90 106 139 139 111 99 121
28 35 50 45 64 115 128 158 188 241 301 368 373 381 417 386 332 293 254 371 378 306 310 358 322 313 333 330 276 227 198 217 238 192 157 163 200 184 139 125 117 123 122 88 68 57 68 84 113 119 111 92 65 -32
44 43 29 66 92 125 158 224 252 236 251 307 341 377 380 372 318 318 286 396 422 439 406 376 349 314 282 272 272 225 233 227 191 197 192 161 130 108 119 118 121 114 92 76 51 48 55 98 108 97 102 109 103 102
89 53 71 57 73 96 163 207 319 304 305 368 382 359 391 373 383 436 410 431 483 512 492 337 303 252 234 332 325 291 230 223 210 185 152 145 118 111 105 102 97 78 74 65 86 81 88 102 84 57 80 61 -5 39
111 100 65 66 68 131 198 289 307 316 304 348 365 363 392 406 424 449 395 442 494 480 439 377 338 350 325 254 241 237 233 206 172 129 127 136 119 107 99 102 104 70 13 74 92 100 99 54 61 16 36 9 -2 5
125 103 124 117 189 261 317 274 273 273 310 353 374 407 421 381 403 405 344 391 401 427 410 342 323 265 260 243 230 194 160 142 139 136 132 130 115 96 88 93 94 90 90 87 97 109 116 125 48 32 36 30 -2 -1
107 78 149 187 247 310 308 263 228 210 203 201 238 238 303 279 257 287 339 358 308 339 324 303 281 256 219 199 179 156 151 143 154 160 139 88 80 91 94 106 106 76 37 43 70 75 106 127 136 -22 6 1 -2 12
164 156 234 306 308 263 199 179 125 77 84 77 63 98 157 182 209 173 226 227 210 201 195 195 187 179 163 157 144 148 142 134 140 146 113 118 117 83 59 36 11 34 47 48 49 -15 86 113 110 -5 2 21 19 -2
242 264 319 327 280 224 190 173 183 155 128 101 134 148 108 99 77 191 170 143 130 128 134 119 109 116 125 129 126 131 130 134 113 102 114 127 121 116 98 66 34 21 12 -10 -3 -31 -27 -30 111 93 59 35 38 49
283 256 229 237 208 171 187 183 168 164 177 188 176 172 151 168 174 162 140 105 90 84 61 70 96 116 116 126 121 125 132 130 126 114 95 107 112 140 114 118 120 14 12 18 -11 -20 -18 -24 2 113 166 153 97 74
261 244 228 187 159 145 158 182 231 248 211 190 196 194 225 200 135 89 65 71 63 63 83 101 114 127 126 117 126 139 141 161 208 205 193 166 178 190 198 170 142 115 89 64 64 30 5 -6 -18 -0 13 17 112 90
266 211 135 105 124 124 146 147 126 123 113 131 156 163 138 124 108 108 111 120 129 129 128 128 137 150 162 182 195 201 162 139 133 117 130 165 184 222 209 155 140 111 92 73 67 73 73 50 28 30 36 29 47 37
149 102 96 120 116 133 123 117 105 98 124 135 156 168 167 127 107 117 134 134 137 143 145 148 145 148 164 175 192 204 201 174 194 155 120 142 156 136 95 83 86 74 61 49 38 40 55 52 31 26 30 25 34 49
106 123 121 109 106 105 116 130 111 153 170 180 174 158 140 124 139 111 117 124 121 141 151 147 140 135 132 118 122 112 147 137 146 165 178 151 118 64 64 74 60 40 41 47 46 45 58 56 48 54 58 68 74 53
120 126 120 138 123 133 112 128 120 118 145 149 156 131 114 129 127 82 53 52 52 63 79 77 65 48 56 43 55 66 93 78 78 112 117 131 134 112 76 89 46 24 40 50 55 61 74 77 80 90 105 109 127 137
Wind_Speed
38 38 40 43 45 47 48 51 53 54 55 57 58 58 58 58 59 49 52 43 52 66 68 56 54 57 57 55 63 53 57 51 50 59 63 64 66 59 61 61 68 65 64 75 71 79 90 46 59 80 83 77 85 94
39 42 43 44 46 48 48 50 53 54 56 57 59 59 60 59 59 48 54 46 45 58 66 54 50 48 47 49 52 46 54 54 46 55 55 61 68 59 74 87 56 71 60 78 65 74 66 61 74 71 80 86 90 90
46 45 46 46 48 50 50 53 52 53 56 57 58 60 61 60 58 52 50 46 51 65 73 63 62 50 43 43 39 57 53 47 50 47 62 61 67 65 85 81 68 62 55 73 83 78 77 79 77 69 79 87 89 89
47 49 49 51 52 53 55 56 55 56 57 57 59 62 62 63 60 52 51 47 50 59 73 66 49 48 42 39 39 42 48 44 45 47 60 67 73 55 75 73 75 66 69 84 89 80 77 57 67 86 93 86 91 91
53 54 55 56 57 57 58 59 59 59 60 61 63 60 65 70 64 52 51 48 46 53 71 75 71 59 55 50 46 43 45 50 55 62 63 70 64 65 68 75 86 61 67 73 83 66 71 74 86 82 82 88 88 92
55 56 57 57 60 60 61 62 62 60 60 61 60 63 65 65 57 53 59 49 45 47 64 78 56 60 57 47 49 48 44 45 47 57 63 63 56 62 81 91 67 56 52 53 66 68 75 78 72 76 84 86 87 87
59 60 60 61 61 62 62 63 63 62 60 60 61 62 63 61 56 54 55 50 49 38 56 72 70 52 48 49 50 49 45 47 48 57 61 62 59 56 74 87 72 68 65 62 65 70 70 74 83 84 86 87 87 88
59 61 62 62 63 63 64 65 64 65 64 62 61 63 64 61 54 56 49 49 45 52 55 68 70 67 52 61 61 47 53 49 52 57 59 62 59 57 78 69 68 62 55 57 65 64 68 73 78 85 86 90 99 102
62 64 64 64 65 64 64 64 64 63 62 62 61 66 57 52 55 51 51 52 44 50 61 62 72 80 48 56 53 54 51 64 51 63 62 55 65 71 66 66 66 64 69 76 63 70 78 86 94 96 98 103 105 109
65 67 65 65 65 64 63 63 63 62 59 57 57 59 59 51 52 55 52 53 51 49 55 71 65 74 57 58 60 59 56 63 70 64 53 67 78 71 71 71 75 68 50 54 73 90 93 95 98 101 104 106 105 104
69 69 68 67 65 63 61 61 60 56 51 55 58 58 55 54 56 55 60 58 54 64 59 64 62 69 53 66 64 53 62 61 77 69 68 77 83 71 65 65 55 48 49 58 76 80 88 93 102 105 109 110 110 108
70 70 69 67 65 62 60 59 58 53 52 52 53 55 58 56 57 61 65 59 63 69 59 61 59 53 51 48 55 54 64 61 80 56 73 89 81 72 70 66 62 57 59 77 81 91 98 97 102 102 104 109 109 107
69 70 69 66 64 62 59 58 56 49 42 53 56 62 60 57 67 69 76 70 69 60 57 57 63 52 50 49 57 60 72 77 61 77 88 83 74 72 77 74 69 67 74 93 99 99 100 100 101 103 107 106 103 105
67 67 65 63 62 60 58 55 52 38 49 61 62 74 68 67 70 66 67 67 59 58 59 54 59 59 53 60 62 73 67 65 81 95 98 84 70 77 88 79 76 83 90 100 100 98 101 102 105 102 102 105 104 104
65 65 65 65 63 59 56 52 43 41 51 61 57 76 77 69 65 61 60 61 55 52 52 60 61 58 64 69 64 68 80 87 83 92 75 80 91 97 95 94 91 89 94 98 96 97 98 101 103 108 106 100 98 95
64 66 56 52 52 51 48 45 41 42 53 59 60 73 69 78 78 70 67 67 53 52 53 56 67 75 80 70 72 80 87 100 93 79 87 95 96 88 89 88 88 89 93 92 91 91 96 102 105 102 98 93 90 87
63 50 50 48 43 37 35 37 37 48 54 59 69 64 69 79 85 77 72 72 52 55 70 65 73 74 65 75 80 74 86 84 87 90 85 84 80 84 85 83 86 91 90 90 93 97 101 102 96 90 91 86 79 78
45 48 55 54 50 48 42 33 40 46 59 57 68 66 59 65 73 76 69 57 55 62 64 69 66 75 76 87 92 85 82 82 80 81 77 76 73 72 75 85 88 86 88 93 95 100 100 92 90 89 81 71 64 69
37 36 37 43 41 41 43 41 40 61 58 58 57 61 61 64 64 68 73 60 57 58 59 62 66 72 77 74 80 84 83 77 79 76 71 68 75 77 81 81 84 91 95 96 97 93 84 81 79 79 70 65 57 62
47 45 43 39 36 38 41 39 32 45 52 50 50 54 56 56 60 61 63 56 51 54 60 64 70 68 72 74 73 74 72 69 69 78 77 76 74 80 82 82 82 86 89 87 83 86 85 82 79 76 70 64 47 50
48 40 40 39 35 30 42 42 43 46 54 57 53 51 56 52 53 55 56 45 50 55 60 57 62 66 70 68 62 60 60 57 58 59 66 76 75 77 76 76 80 81 84 88 92 90 86 80 83 77 67 60 52 54
43 48 38 29 32 30 28 27 40 46 49 54 59 53 58 61 56 52 49 41 42 34 32 38 48 66 71 62 58 54 49 46 47 54 62 65 71 75 76 77 81 84 84 84 82 83 87 83 83 83 71 78 84 78
45 40 39 36 35 35 36 39 38 39 44 49 46 49 49 46 44 37 40 39 33 35 34 32 37 46 51 54 53 52 55 55 55 55 58 62 63 65 67 69 74 85 93 86 80 82 81 83 83 86 83 84 80 76
39 41 41 36 29 39 45 43 39 42 44 47 44 41 37 38 41 39 42 45 43 50 50 51 49 46 46 43 46 52 56 54 54 54 54 56 62 65 66 70 73 76 78 82 80 75 74 77 85 86 82 81 75 71
43 40 33 37 40 43 46 47 46 46 46 44 44 41 42 40 45 47 45 50 54 58 59 57 53 50 48 48 46 50 50 54 56 57 56 55 60 67 71 72 77 80 82 82 81 84 82 73 63 80 79 55 55 60
40 35 37 42 41 41 40 46 44 46 51 51 42 46 47 47 44 40 51 58 58 57 58 58 55 51 48 49 50 51 52 54 55 55 54 57 66 69 76 84 89 87 78 85 93 63 34 38 35 56 75 69 58 58
45 44 44 42 44 44 47 46 50 51 52 51 50 50 49 48 45 48 50 52 53 54 54 50 48 48 49 52 52 52 55 55 52 53 54 57 56 57 62 77 88 87 90 90 90 90 90 75 56 26 37 61 69 63
44 46 45 51 49 44 50 53 51 50 48 50 49 48 48 48 52 49 49 51 52 50 48 46 48 51 51 51 53 56 55 60 62 58 52 51 56 62 65 74 76 87 88 88 88 86 86 85 61 28 24 18 21 61
46 51 57 59 54 50 50 53 55 51 52 53 55 56 53 49 50 54 54 57 55 54 54 55 55 55 54 52 54 54 56 61 68 68 70 72 73 71 79 82 82 82 86 87 86 84 84 83 82 80 76 71 36 33
52 55 54 54 54 54 50 48 53 55 54 55 55 56 56 55 54 55 57 58 59 59 57 55 55 56 57 59 61 61 57 57 63 63 66 70 71 78 81 79 82 82 85 83 83 82 82 80 76 74 71 65 60 55
54 51 53 55 57 54 57 60 59 57 57 59 57 62 63 59 54 55 59 59 59 58 58 59 57 55 58 60 63 66 66 61 67 66 64 68 72 74 75 77 76 76 78 77 76 76 77 75 72 70 68 64 59 52
56 56 62 65 64 66 68 67 64 64 67 66 67 63 63 64 67 61 59 59 59 60 61 61 61 60 59 56 57 59 62 65 65 66 69 69 70 70 72 71 71 72 72 71 70 70 70 69 67 65 63 60 56 51
62 63 63 66 67 69 71 77 70 70 67 67 65 63 62 62 64 56 51 53 54 57 60 61 60 56 56 51 54 58 61 61 62 64 66 67 69 69 67 68 65 68 66 65 65 65 65 64 63 61 59 56 52 48
Wind_Direction
302 305 308 310 312 312 312 312 313 315 316 317 317 318 321 322 323 318 317 315 307 304 305 308 309 308 310 311 310 319 322 323 320 314 317 319 317 318 320 320 322 318 320 319 322 318 322 337 334 325 325 329 330 331
306 308 310 312 314 314 314 314 314 317 318 318 319 319 318 320 321 320 312 318 314 306 307 313 311 310 308 310 311 309 311 316 314 315 315 319 313 315 315 314 318 311 311 315 310 311 319 323 320 325 327 327 330 330
303 307 308 312 311 312 313 314 318 318 316 319 318 318 319 319 320 319 315 317 317 310 309 307 308 312 304 298 305 303 307 308 307 311 312 311 306 314 310 313 313 315 316 311 313 313 314 317 318 327 329 328 328 328
304 304 306 307 310 310 310 311 313 315 316 317 317 316 317 316 317 317 314 316 314 313 307 311 322 317 324 318 306 305 308 315 314 313 307 307 306 310 311 311 311 315 316 311 306 312 317 320 328 325 325 327 327 328
302 302 304 304 306 307 307 307 308 312 313 314 313 314 315 315 314 314 311 310 308 306 305 307 311 313 314 314 314 312 305 302 302 303 302 303 309 310 309 310 307 314 311 310 310 317 320 321 324 326 327 328 329 329
301 303 305 306 305 307 307 307 308 310 311 312 314 313 315 320 322 317 310 319 314 308 307 306 315 313 317 319 313 309 308 307 304 304 305 307 311 309 307 307 315 313 314 311 314 322 320 321 326 328 327 328 329 330
301 302 303 304 307 307 308 307 308 309 309 310 312 314 316 317 319 310 309 318 322 317 309 307 309 319 326 323 320 315 315 312 307 306 304 307 308 307 307 306 310 316 317 318 321 324 322 327 325 328 328 328 329 329
303 303 304 305 305 306 306 306 306 306 308 308 310 312 312 313 313 309 312 315 317 310 309 304 305 310 319 313 313 321 314 313 309 307 310 309 313 310 308 313 319 324 327 326 326 327 325 325 326 328 329 328 327 327
301 302 303 304 304 304 305 305 306 306 308 309 311 312 314 313 307 312 316 315 311 301 304 303 305 309 319 315 318 316 315 309 314 307 308 312 309 306 312 318 321 322 320 319 325 328 326 325 324 325 326 326 325 324
299 300 301 302 303 304 304 305 305 306 308 311 313 308 305 311 318 317 313 308 305 300 298 299 304 302 309 311 311 313 312 308 308 310 317 309 307 311 312 313 315 317 322 325 325 324 325 324 324 323 324 324 324 323
297 298 299 300 301 302 303 304 305 308 310 309 305 302 308 316 311 307 303 302 304 303 303 305 303 299 309 303 304 310 309 311 306 310 309 310 313 322 325 321 325 325 325 325 325 326 326 324 324 322 322 322 323 322
297 298 299 300 300 301 303 304 304 304 305 306 307 310 310 306 301 299 298 301 300 302 308 309 310 311 313 315 308 311 307 309 304 315 309 308 317 325 326 323 318 317 319 323 325 322 323 322 323 322 321 321 321 321
300 300 300 301 302 302 304 307 308 308 309 305 303 300 301 300 293 294 294 297 300 306 310 313 310 315 316 314 308 309 304 302 313 306 306 311 319 322 327 323 317 316 316 321 321 321 321 321 321 322 321 322 322 321
303 302 303 303 303 304 305 306 308 308 306 296 293 290 290 291 293 295 297 302 308 311 312 313 312 310 313 307 306 303 305 308 304 304 307 315 321 323 325 325 321 317 319 321 321 322 322 323 323 324 325 324 324 323
308 305 304 303 303 303 303 303 305 303 300 293 293 287 285 293 299 304 306 308 312 316 314 311 309 308 305 303 303 303 303 301 304 307 314 318 319 319 321 322 321 320 322 324 324 324 325 326 327 326 327 327 327 328
310 310 313 314 309 307 306 304 302 299 296 292 289 289 295 295 295 299 301 302 308 309 311 311 306 303 298 300 298 298 299 299 306 310 313 315 317 319 322 323 323 324 325 325 327 327 327 327 328 329 330 332 334 335
314 316 318 319 319 318 314 306 304 293 295 292 291 289 290 294 294 296 298 299 301 301 299 303 300 300 307 301 300 304 302 305 309 310 314 315 318 320 323 325 326 328 327 327 327 327 327 328 330 332 333 336 339 340
323 320 313 310 311 310 308 304 298 297 291 291 293 294 294 296 297 297 298 300 299 298 298 296 301 297 298 300 300 302 304 306 310 311 314 317 320 322 326 327 328 330 330 328 327 327 328 331 332 334 335 337 339 344
331 329 326 321 318 314 310 305 294 294 290 295 293 294 294 294 295 296 299 298 294 298 300 299 298 299 298 301 301 304 308 310 311 313 316 321 323 325 327 330 330 328 327 328 328 331 334 334 335 337 339 341 341 346
332 331 327 325 323 316 312 313 314 307 303 300 296 296 296 294 298 298 299 298 296 297 294 295 295 296 299 303 306 308 310 312 314 313 314 319 325 327 329 331 331 331 330 331 333 333 334 336 338 339 341 343 341 290
337 340 339 335 327 310 312 310 305 307 309 306 305 301 302 305 299 297 299 303 296 292 293 291 292 298 305 308 313 316 317 319 318 318 319 320 326 328 331 333 332 334 333 332 330 331 334 338 337 339 342 344 346 348
337 336 338 337 331 330 315 310 309 315 308 305 308 308 303 302 300 299 307 300 300 278 281 288 300 304 306 308 315 320 326 330 330 326 324 326 326 329 332 333 335 334 334 335 337 336 334 336 335 331 340 334 316 328
336 339 337 334 328 328 324 328 317 318 315 319 319 313 311 309 309 316 309 306 301 313 313 315 321 322 317 314 319 323 325 329 330 333 332 330 332 334 335 339 340 332 324 334 338 337 337 336 334 323 327 319 311 309
336 334 331 330 326 327 330 327 328 326 325 322 319 316 317 317 315 309 308 312 316 320 321 323 326 325 325 328 327 325 326 332 334 337 337 337 335 336 339 340 340 339 337 336 338 342 343 342 333 323 323 318 301 297
329 331 334 323 326 325 323 323 323 325 325 327 324 320 320 324 315 311 310 320 317 315 318 322 326 329 324 325 331 330 334 336 336 335 337 337 337 336 337 339 338 335 335 337 339 338 339 344 348 303 302 281 278 278
321 325 322 326 327 323 324 324 327 328 326 327 328 327 325 322 319 318 320 323 322 325 323 320 323 325 327 329 328 329 333 336 337 336 337 339 335 334 331 328 326 326 337 332 324 292 313 344 344 287 297 292 281 281
313 312 316 320 321 323 320 320 320 320 320 322 324 325 323 319 320 323 328 330 328 328 329 331 331 330 329 328 329 331 332 334 335 334 336 337 338 339 338 332 325 321 316 314 320 314 312 299 348 321 279 282 291 289
314 317 312 316 315 316 315 318 320 318 318 322 322 321 323 322 322 330 332 333 334 334 334 334 334 332 331 330 331 331 332 332 333 334 337 339 340 338 339 335 335 320 318 321 316 315 315 310 288 305 325 294 266 316
314 315 314 309 311 313 313 313 315 318 318 317 315 314 317 321 324 324 326 327 327 327 326 326 327 329 330 331 332 333 333 334 332 329 328 327 329 332 331 329 329 329 326 318 318 319 317 316 317 325 326 320 343 344
315 317 313 313 314 315 317 319 317 318 318 316 315 314 313 316 320 323 322 323 323 322 323 323 324 326 326 327 327 329 332 334 333 331 329 328 330 327 326 329 329 330 329 327 325 324 326 327 331 333 335 327 325 327
318 318 316 315 313 316 315 318 317 316 316 314 315 312 311 313 316 321 322 321 322 322 322 321 321 323 323 323 324 324 324 329 328 328 328 327 325 326 327 326 328 331 331 331 330 330 329 333 335 333 337 332 330 332
320 317 315 312 311 312 314 316 315 313 313 312 312 314 313 311 309 314 321 322 321 321 321 321 319 318 321 322 324 326 324 324 326 326 326 328 328 329 328 326 328 331 331 332 331 333 335 338 338 338 343 340 337 340
317 317 316 314 313 313 314 315 313 312 313 313 314 316 316 314 311 317 324 327 325 324 323 323 322 320 321 322 325 326 327 327 327 328 328 329 329 330 331 329 331 333 332 333 333 334 337 340 342 342 344 346 343 346